This demonstration page uses our WeatherBlox Daily Observations layout. Learn more.

Left ArrowRight Arrow

40.92945, -100.16068

Hourly Observations for April 18, 2020

Temp ( °F °C ) Dew Point ( °F °C ) Humidity (%) Winds ( mph kmh ) Pressure ( in mb ) Visibility ( mi km ) Precip ( " mm )
12:15 am 00:15 Clear 32 0.2 26 -3.6 76 76 S 6 9 30.06 1018 10 16 0.00 0.00
12:35 am 00:35 Clear 32 -0.2 25 -3.9 76 76 S 5 7 30.06 1018 10 16 0.00 0.00
12:55 am 00:55 Clear 31 -0.3 25 -3.7 78 78 Calm 30.06 1018 10 16 0.00 0.00
1:15 am 01:15 Clear 32 0.1 25 -3.8 75 75 Calm 30.06 1018 10 16 0.00 0.00
1:35 am 01:35 Clear 33 0.4 26 -3.6 75 75 Calm 30.04 1017 10 16 0.00 0.00
1:55 am 01:55 Clear 28 -2.5 24 -4.4 87 87 Calm 30.06 1018 10 16 0.00 0.00
2:15 am 02:15 Clear 27 -2.6 24 -4.4 88 88 Calm 30.06 1018 10 16 0.00 0.00
2:35 am 02:35 Clear 27 -3 24 -4.7 88 88 Calm 30.06 1018 10 16 0.00 0.00
2:55 am 02:55 Clear 26 -3.1 24 -4.6 90 90 Calm 30.05 1018 10 16 0.00 0.00
3:15 am 03:15 Clear 27 -3 24 -4.6 89 89 Calm 30.04 1017 10 16 0.00 0.00
3:35 am 03:35 Clear 26 -3.3 23 -4.8 90 90 Calm 30.03 1017 10 16 0.00 0.00
3:55 am 03:55 Clear 26 -3.2 24 -4.7 90 90 Calm 30.03 1017 10 16 0.00 0.00
4:15 am 04:15 Clear 31 -0.4 22 -5.4 69 69 WSW 5 7 30.00 1016 10 16 0.00 0.00
4:35 am 04:35 Clear 35 1.9 23 -5 61 61 WSW 9 15 29.98 1015 10 16 0.00 0.00
4:55 am 04:55 Clear 37 2.7 25 -3.8 63 63 WSW 9 15 29.96 1015 10 16 0.00 0.00
5:15 am 05:15 Clear 37 2.7 25 -4 62 62 W 7 11 29.96 1015 10 16 0.00 0.00
5:35 am 05:35 Clear 37 2.7 24 -4.2 61 61 W 7 11 29.95 1014 10 16 0.00 0.00
5:55 am 05:55 Clear 37 2.6 25 -3.9 63 63 W 9 15 29.95 1014 10 16 0.00 0.00
6:15 am 06:15 Clear 36 2 26 -3.3 68 68 W 8 13 29.95 1014 10 16 0.00 0.00
6:35 am 06:35 Clear 36 2.1 25 -4 64 64 W 6 9 29.95 1014 10 16 0.00 0.00
6:55 am 06:55 Sunny 33 0.3 25 -4 73 73 W 5 7 29.96 1015 10 16 0.00 0.00
7:15 am 07:15 Sunny 33 0.8 25 -4 71 71 WSW 5 7 29.97 1015 10 16 0.00 0.00
7:35 am 07:35 Sunny 32 0.1 26 -3.5 77 77 SW 9 15 29.97 1015 10 16 0.00 0.00
7:55 am 07:55 Sunny 35 1.5 27 -3 72 72 WSW 5 7 29.95 1014 10 16 0.00 0.00
8:15 am 08:15 Sunny 37 2.6 28 -2.4 70 70 SSW 6 9 29.95 1014 10 16 0.00 0.00
8:35 am 08:35 Sunny 40 4.4 30 -1 68 68 SSW 7 11 29.92 1013 10 16 0.00 0.00
8:55 am 08:55 Sunny 43 6.1 31 -0.8 62 62 WSW 7 11 29.90 1012 10 16 0.00 0.00
9:15 am 09:15 Sunny 45 7 31 -0.6 59 59 WSW 8 13 29.89 1012 10 16 0.00 0.00
9:35 am 09:35 Sunny 47 8.2 31 -0.6 54 54 WSW 10 17 29.87 1011 10 16 0.00 0.00
9:55 am 09:55 Sunny 48 9.1 32 -0.2 53 53 W 9 15 29.86 1011 10 16 0.00 0.00
10:15 am 10:15 Sunny 50 9.9 32 -0.1 50 50 W 10 17 29.85 1011 10 16 0.00 0.00
10:35 am 10:35 Sunny 53 11.5 33 0.3 46 46 WNW 9 15 29.83 1010 10 16 0.00 0.00
10:55 am 10:55 Sunny 55 12.9 33 0.5 43 43 WNW 9 15 29.80 1009 10 16 0.00 0.00
11:15 am 11:15 Sunny 57 13.9 33 0.5 40 40 WNW 8 13 29.79 1009 10 16 0.00 0.00
11:35 am 11:35 Sunny 59 14.9 34 1 39 39 NW 6 9 29.78 1008 10 16 0.00 0.00
11:55 am 11:55 Sunny 60 15.8 34 0.9 37 37 Calm 29.76 1008 10 16 0.00 0.00
12:15 pm 12:15 Sunny 62 16.6 33 0.8 35 35 Calm 29.75 1008 10 16 0.00 0.00
12:35 pm 12:35 Sunny 63 17.4 32 0.1 31 31 S 5 7 29.74 1007 10 16 0.00 0.00
12:55 pm 12:55 Sunny 65 18.1 33 0.3 30 30 S 7 11 29.72 1006 10 16 0.00 0.00
1:15 pm 13:15 Sunny 64 17.7 30 -1 28 28 Calm 29.71 1006 10 16 0.00 0.00
1:35 pm 13:35 Sunny 65 18.5 31 -0.7 27 27 Calm 29.70 1006 10 16 0.00 0.00
1:55 pm 13:55 Sunny 67 19.2 29 -1.9 24 24 NW 3 6 29.68 1005 10 16 0.00 0.00
2:15 pm 14:15 Sunny 68 20 31 -0.6 25 25 W 3 6 29.67 1005 10 16 0.00 0.00
2:35 pm 14:35 Sunny 68 20 31 -0.3 26 26 NW 3 6 29.66 1004 10 16 0.00 0.00
2:55 pm 14:55 Sunny 67 19.6 33 0.4 28 28 SW 8 13 29.66 1004 10 16 0.00 0.00
3:15 pm 15:15 Sunny 69 20.6 32 0.1 25 25 SW 8 13 29.64 1004 10 16 0.00 0.00
3:35 pm 15:35 Sunny 69 20.5 31 -0.4 25 25 ESE 3 6 29.64 1004 10 16 0.00 0.00
3:55 pm 15:55 Sunny 70 21 33 0.3 25 25 SE 3 6 29.61 1003 10 16 0.00 0.00
4:15 pm 16:15 Sunny 71 21.8 34 0.9 25 25 W 7 11 29.60 1002 10 16 0.00 0.00
4:35 pm 16:35 Sunny 71 21.5 31 -0.5 23 23 NNW 6 9 29.60 1002 10 16 0.00 0.00
4:55 pm 16:55 Sunny 71 21.4 31 -0.7 23 23 N 3 6 29.59 1002 10 16 0.00 0.00
5:15 pm 17:15 Sunny 71 21.7 31 -0.3 23 23 WNW 10 17 29.59 1002 10 16 0.00 0.00
5:35 pm 17:35 Sunny 70 20.9 29 -1.5 22 22 Calm 29.60 1002 10 16 0.00 0.00
5:55 pm 17:55 Partly Cloudy 71 21.6 28 -2 21 21 N 9 15 29.59 1002 10 16 0.00 0.00
6:15 pm 18:15 Sunny 69 20.7 30 -1 23 23 NW 10 17 29.60 1002 10 16 0.00 0.00
6:35 pm 18:35 Sunny 68 20 30 -0.9 25 25 NW 9 15 29.60 1002 10 16 0.00 0.00
6:55 pm 18:55 Mostly Cloudy 67 19.5 31 -0.6 26 26 NW 8 13 29.62 1003 10 16 0.00 0.00
7:15 pm 19:15 Mostly Cloudy 67 19.3 33 0.5 28 28 NW 8 13 29.61 1003 10 16 0.00 0.00
7:35 pm 19:35 Partly Cloudy 67 19.2 32 0 28 28 WNW 8 13 29.61 1003 10 16 0.00 0.00
7:55 pm 19:55 Sunny 61 16 33 0.4 35 35 WNW 9 15 29.65 1004 10 16 0.00 0.00
8:15 pm 20:15 Sunny 57 14.1 32 -0.1 38 38 NW 8 13 29.66 1005 10 16 0.00 0.00
8:35 pm 20:35 Clear 55 13 31 -0.6 39 39 NW 7 11 29.68 1005 10 16 0.00 0.00
8:55 pm 20:55 Clear 53 11.8 31 -0.8 42 42 N 6 9 29.69 1006 10 16 0.00 0.00
9:15 pm 21:15 Clear 51 10.5 32 -0.1 48 48 NE 5 7 29.73 1007 10 16 0.00 0.00
9:35 pm 21:35 Clear 52 11.1 31 -0.5 45 45 NE 10 17 29.73 1007 10 16 0.00 0.00
9:55 pm 21:55 Clear 51 10.7 31 -0.3 47 47 NE 10 17 29.75 1008 10 16 0.00 0.00
10:15 pm 22:15 Clear 51 10.8 32 0 48 48 ENE 10 17 29.75 1008 10 16 0.00 0.00
10:35 pm 22:35 Clear 50 10 32 -0.1 50 50 NE 12 19 29.77 1008 10 16 0.00 0.00
10:55 pm 22:55 Clear 46 7.6 32 -0.2 58 58 NNE 9 15 29.80 1009 10 16 0.00 0.00
11:15 pm 23:15 Clear 47 8.6 32 0 55 55 NE 12 19 29.79 1009 10 16 0.00 0.00
11:35 pm 23:35 Clear 47 8.5 32 0.2 56 56 NNE 14 22 29.79 1009 10 16 0.00 0.00
11:55 pm 23:55 Clear 48 9 33 0.7 56 56 NNE 14 22 29.80 1009 10 16 0.00 0.00

Powered by AerisWeather